Location: Luna
(33.8188°N, 108.9564°W)
Time: 13:52:07
(UTC+00:00)

VELOX 1 - Visible Passes

Search period start: 25 March 2023 00:00
Search period end: 04 April 2023 00:00
Orbit: 618 x 633 km, 98.4° (Epoch: 25 March)

Date Brightness Start Highest point End Pass type
(mag) Time Alt. Az. Time Alt. Az. Time Alt. Az.
25 Mar ? 12:40:22 10° SSE 12:44:40 63° ENE 12:48:59 10° N visible
26 Mar ? 02:08:26 10° N 02:12:27 38° WNW 02:16:27 10° SW visible
27 Mar ? 02:27:51 10° NNW 02:31:19 24° WNW 02:34:45 10° WSW visible
27 Mar ? 11:44:45 10° E 11:46:54 14° ENE 11:49:01 10° NE visible
28 Mar ? 02:47:40 10° NNW 02:50:06 15° WNW 02:52:32 10° WSW visible
28 Mar ? 12:02:21 10° ESE 12:05:40 22° ENE 12:08:58 10° NNE visible
29 Mar ? 12:20:32 10° SE 12:24:28 34° ENE 12:28:26 10° N visible
30 Mar ? 12:39:03 10° SSE 12:43:19 58° ENE 12:47:36 10° N visible
31 Mar ? 02:06:59 10° N 02:11:03 41° WNW 02:15:06 10° SW visible
01 Apr ? 02:26:17 10° NNW 02:29:50 25° WNW 02:33:22 10° SW visible
01 Apr ? 11:43:33 10° E 11:45:24 13° ENE 11:47:14 10° NE visible
02 Apr ? 02:45:55 10° NNW 02:48:33 16° WNW 02:51:10 10° WSW visible
02 Apr ? 12:00:54 10° ESE 12:04:05 20° ENE 12:07:15 10° NNE visible
03 Apr ? 12:18:56 10° SE 12:22:48 32° ENE 12:26:39 10° N visible
